Free proxy list with verified HTTP, HTTPS & SOCKS proxy-servers

These public free proxies are provided absolutely free of charge and do not require any authorization. Buy proxies IPv4 with unlimited bandwidth premium quality 24/7 support for a cheap price in the next section.

The public proxies listed below are provided free of charge for all visitors to our website. Our system regularly scans and verifies their availability, so you will always find up-to-date and working free proxies online at the link provided.

Please note that these free proxies have been collected from open sources on the internet. They do not require authorization and are available for your unrestricted use.

However, free proxy site cannot compete with our paid residential proxies! If you need a large pool of IP addresses with regular rotation, maximum uptime, top quality, and full compatibility with popular programs and scripts for parsers, checkers, posters, and other automated tasks — check out our offers and find out where to buy proxies.

Currently, the list contains 495 live free proxy servers.

Free proxy list was last updated on 21:30:48 07.05.2026.

# IP Port Speed The last checkup
1 SOCKS4 Free Proxy BR BR 610 21:31:18 07.05.2026 (24 minutes ago)
2 HTTP ELITE Free Proxy US US 2580 21:31:18 07.05.2026 (24 minutes ago)
3 SOCKS4 Free Proxy ID ID 1130 21:31:15 07.05.2026 (24 minutes ago)
4 SOCKS4 Free Proxy IR IR 2340 21:31:15 07.05.2026 (24 minutes ago)
5 SOCKS5 2029 21:31:14 07.05.2026 (24 minutes ago)
6 SOCKS4 Free Proxy PL PL 920 21:31:12 07.05.2026 (24 minutes ago)
7 HTTP ANON Free Proxy US US 4120 21:31:12 07.05.2026 (24 minutes ago)
8 SOCKS5 310 21:31:12 07.05.2026 (24 minutes ago)
9 SOCKS4 Free Proxy HR HR 1730 21:31:11 07.05.2026 (24 minutes ago)
10 SOCKS4 560 21:31:10 07.05.2026 (24 minutes ago)
11 HTTP ELITE Free Proxy US US 4000 21:31:09 07.05.2026 (24 minutes ago)
12 SOCKS4 Free Proxy CL CL 490 21:31:04 07.05.2026 (24 minutes ago)
13 SOCKS5 Free Proxy US US 960 21:31:03 07.05.2026 (24 minutes ago)
14 SOCKS4 Free Proxy AR AR 520 21:31:03 07.05.2026 (24 minutes ago)
15 SOCKS5 Free Proxy KG KG 1520 21:31:03 07.05.2026 (24 minutes ago)
16 SOCKS4 SOCKS5 Free Proxy RU RU 1310 21:31:03 07.05.2026 (24 minutes ago)
17 SOCKS5 Free Proxy NL NL 330 21:31:01 07.05.2026 (24 minutes ago)
18 SOCKS4 Free Proxy IN IN 1920 21:31:01 07.05.2026 (24 minutes ago)
19 SOCKS5 Free Proxy MG MG 2410 21:31:00 07.05.2026 (24 minutes ago)
20 SOCKS4 Free Proxy PH PH 280 21:30:59 07.05.2026 (24 minutes ago)
21 SOCKS5 Free Proxy GB GB 2340 21:30:58 07.05.2026 (24 minutes ago)
22 SOCKS4 Free Proxy RU RU 3250 21:30:57 07.05.2026 (24 minutes ago)
23 SOCKS4 Free Proxy IT IT 470 21:30:57 07.05.2026 (24 minutes ago)
24 HTTPS Free Proxy CN CN 1430 21:30:56 07.05.2026 (24 minutes ago)
25 SOCKS5 Free Proxy PH PH 1460 21:30:55 07.05.2026 (24 minutes ago)
26 HTTP ELITE Free Proxy US US 150 21:30:55 07.05.2026 (24 minutes ago)
27 SOCKS5 Free Proxy BD BD 720 21:30:55 07.05.2026 (24 minutes ago)
28 HTTP TRANSPARENT 3610 21:30:54 07.05.2026 (24 minutes ago)
29 SOCKS4 Free Proxy AR AR 930 21:30:54 07.05.2026 (24 minutes ago)
30 SOCKS4 SOCKS5 Free Proxy US US 200 21:30:53 07.05.2026 (24 minutes ago)
31 SOCKS4 SOCKS5 1090 21:30:53 07.05.2026 (24 minutes ago)
32 HTTPS Free Proxy US US 2190 21:30:53 07.05.2026 (24 minutes ago)
33 SOCKS5 620 21:30:53 07.05.2026 (24 minutes ago)
34 SOCKS4 Free Proxy BF BF 190 21:30:52 07.05.2026 (24 minutes ago)
35 SOCKS4 Free Proxy TR TR 970 21:30:52 07.05.2026 (24 minutes ago)
36 SOCKS4 290 21:30:51 07.05.2026 (24 minutes ago)
37 HTTPS 920 21:30:49 07.05.2026 (24 minutes ago)
38 SOCKS4 SOCKS5 Free Proxy DE DE 1070 21:30:49 07.05.2026 (24 minutes ago)
39 HTTP HTTPS ELITE Free Proxy VN VN 1590 21:30:48 07.05.2026 (24 minutes ago)
40 HTTPS Free Proxy US US 3130 21:30:48 07.05.2026 (24 minutes ago)
41 HTTPS 1190 21:30:48 07.05.2026 (24 minutes ago)
42 SOCKS4 Free Proxy LS LS 2760 21:30:48 07.05.2026 (24 minutes ago)
43 SOCKS5 Free Proxy KH KH 1110 21:30:48 07.05.2026 (24 minutes ago)
44 SOCKS4 Free Proxy CR CR 180 21:30:47 07.05.2026 (24 minutes ago)
45 SOCKS4 SOCKS5 Free Proxy US US 200 21:30:47 07.05.2026 (24 minutes ago)
46 HTTP TRANSPARENT 4090 21:30:47 07.05.2026 (24 minutes ago)
47 SOCKS5 Free Proxy PK PK 1920 21:30:47 07.05.2026 (24 minutes ago)
48 SOCKS4 Free Proxy LV LV 1520 21:30:46 07.05.2026 (24 minutes ago)
49 HTTP ELITE Free Proxy US US 2660 21:30:46 07.05.2026 (24 minutes ago)
50 SOCKS4 SOCKS5 Free Proxy JP JP 1430 21:30:46 07.05.2026 (24 minutes ago)
51 HTTPS Free Proxy PH PH 2790 21:30:46 07.05.2026 (24 minutes ago)
52 HTTP ELITE Free Proxy JP JP 3840 21:30:46 07.05.2026 (24 minutes ago)
53 HTTP ANON Free Proxy US US 3840 21:30:46 07.05.2026 (24 minutes ago)
54 HTTP HTTPS ANON Free Proxy US US 2140 21:30:46 07.05.2026 (24 minutes ago)
55 HTTPS Free Proxy ID ID 1530 21:30:45 07.05.2026 (24 minutes ago)
56 HTTP TRANSPARENT Free Proxy CN CN 4950 21:30:45 07.05.2026 (24 minutes ago)
57 SOCKS4 Free Proxy BW BW 1380 21:30:45 07.05.2026 (24 minutes ago)
58 SOCKS5 Free Proxy GB GB 1350 21:30:45 07.05.2026 (24 minutes ago)
59 HTTPS Free Proxy US US 1120 21:30:44 07.05.2026 (24 minutes ago)
60 HTTPS Free Proxy US US 1120 21:30:44 07.05.2026 (24 minutes ago)
61 SOCKS5 Free Proxy MG MG 2700 21:30:44 07.05.2026 (24 minutes ago)
62 SOCKS4 SOCKS5 Free Proxy ZA ZA 180 21:30:43 07.05.2026 (24 minutes ago)
63 SOCKS5 Free Proxy KH KH 380 21:30:43 07.05.2026 (24 minutes ago)
64 HTTPS Free Proxy VE VE 2080 21:30:43 07.05.2026 (24 minutes ago)
65 SOCKS5 Free Proxy IR IR 870 21:30:42 07.05.2026 (24 minutes ago)
66 SOCKS4 SOCKS5 Free Proxy US US 1750 21:30:42 07.05.2026 (24 minutes ago)
67 SOCKS5 Free Proxy RU RU 2130 21:30:41 07.05.2026 (24 minutes ago)
68 SOCKS4 Free Proxy BG BG 100 21:30:41 07.05.2026 (24 minutes ago)
69 HTTPS Free Proxy EG EG 3450 21:30:41 07.05.2026 (24 minutes ago)
70 SOCKS4 Free Proxy HN HN 170 21:30:41 07.05.2026 (24 minutes ago)
71 HTTP ELITE Free Proxy CO CO 6020 21:30:41 07.05.2026 (24 minutes ago)
72 SOCKS4 Free Proxy IN IN 250 21:30:41 07.05.2026 (24 minutes ago)
73 SOCKS4 Free Proxy VN VN 530 21:30:41 07.05.2026 (24 minutes ago)
74 SOCKS5 Free Proxy NL NL 590 21:30:40 07.05.2026 (24 minutes ago)
75 HTTP TRANSPARENT Free Proxy VE VE 6490 21:30:40 07.05.2026 (24 minutes ago)
76 HTTP HTTPS TRANSPARENT Free Proxy ES ES 3260 21:30:39 07.05.2026 (24 minutes ago)
77 SOCKS4 SOCKS5 Free Proxy US US 200 21:30:39 07.05.2026 (24 minutes ago)
78 SOCKS4 SOCKS5 Free Proxy US US 220 21:30:39 07.05.2026 (24 minutes ago)
79 SOCKS5 Free Proxy KH KH 900 21:30:39 07.05.2026 (24 minutes ago)
80 SOCKS4 SOCKS5 Free Proxy US US 230 21:30:38 07.05.2026 (24 minutes ago)
81 SOCKS4 SOCKS5 Free Proxy US US 220 21:30:38 07.05.2026 (24 minutes ago)
82 HTTP ANON Free Proxy SE SE 2009 21:30:38 07.05.2026 (24 minutes ago)
83 SOCKS4 SOCKS5 Free Proxy GB GB 860 21:30:38 07.05.2026 (24 minutes ago)
84 HTTP HTTPS ELITE Free Proxy CN CN 3310 21:30:37 07.05.2026 (25 minutes ago)
85 SOCKS4 Free Proxy AR AR 900 21:30:37 07.05.2026 (25 minutes ago)
86 SOCKS4 SOCKS5 Free Proxy RU RU 1910 21:30:37 07.05.2026 (25 minutes ago)
87 SOCKS5 Free Proxy NL NL 1590 21:30:37 07.05.2026 (25 minutes ago)
88 SOCKS4 Free Proxy ID ID 2410 21:30:37 07.05.2026 (25 minutes ago)
89 HTTP ELITE Free Proxy PT PT 4840 21:30:37 07.05.2026 (25 minutes ago)
90 HTTP TRANSPARENT Free Proxy EC EC 4970 21:30:36 07.05.2026 (25 minutes ago)
91 HTTPS Free Proxy GB GB 1570 21:30:36 07.05.2026 (25 minutes ago)
92 SOCKS4 SOCKS5 Free Proxy US US 220 21:30:36 07.05.2026 (25 minutes ago)
93 HTTP TRANSPARENT 2410 21:30:36 07.05.2026 (25 minutes ago)
94 SOCKS5 Free Proxy US US 390 21:30:36 07.05.2026 (25 minutes ago)
95 SOCKS4 Free Proxy US US 1680 21:30:36 07.05.2026 (25 minutes ago)
96 SOCKS4 Free Proxy ID ID 1730 21:30:36 07.05.2026 (25 minutes ago)
97 HTTPS Free Proxy ID ID 2210 21:30:36 07.05.2026 (25 minutes ago)
98 HTTPS Free Proxy TH TH 1780 21:30:36 07.05.2026 (25 minutes ago)
99 SOCKS4 Free Proxy RO RO 300 21:30:35 07.05.2026 (25 minutes ago)
100 HTTP ELITE Free Proxy US US 4059 21:30:35 07.05.2026 (25 minutes ago)

What are free proxies and how do they work?

Free proxies are usually publicly available proxy servers or accidentally open servers with unsecured settings left without a password by system administrators.

A proxy server is an intermediary computer that facilitates data transfer between the user and internet resources, hiding the user’s real IP address.

When using a proxy server, all requests to websites are first sent to the proxy, which then forwards them to the target resource and returns the received data to the client. Thus, the remote resource sees the proxy’s IP address instead of the user’s, increasing anonymity and security.

Free proxies are divided into three main types by anonymity level: anonymous, elite, and transparent proxies.

An anonymous proxy hides the user’s IP, but the remote server can detect proxy usage via characteristic headers. An elite proxy completely hides both the use of a proxy and the client IP, providing maximum anonymity. A transparent proxy passes the user’s IP along with its own, thus offering no anonymity.

Transparent proxies send the user’s real IP address in headers to the remote resource, making them unsuitable for tasks requiring a high degree of privacy.

All our paid residential proxies are elite, ensuring maximum speed, stability, and protection. Check our "Price List" section and choose the right plan to buy reliable proxy servers.

Advantages of free proxy servers
  1. Completely free and available without registration
  2. No authorization required
  3. No restrictions on traffic volume or usage time
Disadvantages of free proxy servers
  1. High load due to many users reduces speed
  2. Most free proxies are blocked on popular internet services
  3. Limited functionality: FTP, SMTP, SSH and other protocols are often disabled

In summary: free proxies are suitable only for learning and simple tasks but do not provide stability or security for serious work. Choose our paid residential proxies with a huge, constantly updated pool of unique IP addresses that guarantee high speed, maximum anonymity, and reliable data protection. Enjoy round-the-clock technical support and forget about downtime. Start working professionally. Explore our price list and we recommend to buy proxies.